Location: Newark
(3.0500°N, 36.0167°E)
Time: 18:43:14
(UTC+00:00)

Transit 2A Rocket - Pass Details

Date: 26 August 2019
Orbit: 593 x 910 km, 66.7° (Epoch: 15 October)

Event Time Altitude Azimuth Distance (km) Brightness Sun altitude
Rises 14:55:19 0° 216° (SW) 3,533 8.8 11.0°
Reaches altitude 10° 14:58:02 10° 224° (SW) 2,588 8.3 10.3°
Maximum altitude 15:03:33 37° 290° (WNW) 1,349 7.6 9.0°
Drops below altitude 10° 15:08:54 10° 356° (N) 2,491 7.9 7.7°
Sets 15:11:29 0° 4° (N) 3,385 8.4 7.0°
